TimeMDT,TemperatureF,Dew PointF,Humidity,Sea Level PressureIn,VisibilityMPH,Wind Direction,Wind SpeedMPH,Gust SpeedMPH,PrecipitationIn,Events,Conditions,WindDirDegrees,DateUTC
12:53 AM,51.1,19.9,29,29.72,10.0,NNE,3.5,-,N/A,,Clear,30,2012-10-21 06:53:00
1:53 AM,51.1,19.9,29,29.73,10.0,Calm,Calm,-,N/A,,Clear,0,2012-10-21 07:53:00
2:53 AM,48.0,19.9,33,29.76,10.0,NNE,4.6,-,N/A,,Clear,30,2012-10-21 08:53:00
3:53 AM,48.0,24.1,39,29.75,10.0,North,4.6,-,N/A,,Clear,350,2012-10-21 09:53:00
4:53 AM,43.0,24.1,47,29.77,10.0,North,4.6,-,N/A,,Clear,360,2012-10-21 10:53:00
5:53 AM,50.0,28.9,44,29.77,10.0,Calm,Calm,-,N/A,,Clear,0,2012-10-21 11:53:00
6:53 AM,48.9,28.9,46,29.81,10.0,NNW,3.5,-,N/A,,Clear,340,2012-10-21 12:53:00
7:53 AM,48.9,28.9,46,29.84,10.0,Calm,Calm,-,N/A,,Clear,0,2012-10-21 13:53:00
8:53 AM,57.0,30.9,37,29.85,10.0,WSW,8.1,-,N/A,,Clear,250,2012-10-21 14:53:00
9:53 AM,62.1,28.9,29,29.83,10.0,WSW,13.8,18.4,N/A,,Clear,240,2012-10-21 15:53:00
10:53 AM,63.0,30.0,29,29.83,10.0,WSW,13.8,20.7,N/A,,Clear,250,2012-10-21 16:53:00
11:53 AM,66.9,28.9,24,29.81,10.0,WSW,10.4,-,N/A,,Clear,250,2012-10-21 17:53:00
12:53 PM,69.1,26.1,20,29.78,10.0,West,12.7,23.0,N/A,,Clear,270,2012-10-21 18:53:00
1:53 PM,71.1,26.1,19,29.74,10.0,WSW,17.3,28.8,N/A,,Clear,250,2012-10-21 19:53:00
2:53 PM,72.0,28.0,20,29.73,10.0,WSW,16.1,28.8,N/A,,Clear,250,2012-10-21 20:53:00
3:53 PM,71.1,30.0,22,29.73,10.0,WSW,19.6,26.5,N/A,,Clear,240,2012-10-21 21:53:00
4:53 PM,70.0,27.0,20,29.76,10.0,West,12.7,21.9,N/A,,Clear,260,2012-10-21 22:53:00
5:53 PM,68.0,28.0,22,29.75,10.0,West,10.4,-,N/A,,Clear,280,2012-10-21 23:53:00
6:53 PM,63.0,28.0,27,29.78,10.0,Calm,Calm,-,N/A,,Clear,0,2012-10-22 00:53:00
7:53 PM,57.9,27.0,31,29.80,10.0,NNE,5.8,-,N/A,,Clear,30,2012-10-22 01:53:00
8:53 PM,52.0,26.1,37,29.81,10.0,Calm,Calm,-,N/A,,Scattered Clouds,0,2012-10-22 02:53:00
9:53 PM,53.1,27.0,37,29.79,10.0,Calm,Calm,-,N/A,,Clear,0,2012-10-22 03:53:00
10:53 PM,48.9,26.1,41,29.80,10.0,NNW,5.8,-,N/A,,Partly Cloudy,330,2012-10-22 04:53:00
11:53 PM,50.0,27.0,41,29.77,10.0,Calm,Calm,-,N/A,,Clear,0,2012-10-22 05:53:00